OBJECT C, 61240

Orbit data source: Space-Track

You're viewing an Uncataloged Satellite

Recently launched and/or uncataloged satellites may have evolving metadata. Metadata may include but not limited to: Owner, Maufacturer, Bus, Motor, and Mission.

OBJECT C, 61240 is a Chinese satellite in SSO that was launched on Tue, 24 Sep 2024 UTC via a LIJIAN-1 launch vehicle from the Jiuquan Satellite Launch Center, China (JSC). Unknown objects in Earth's orbit typically refer to objects detected orbiting the Earth but have not yet been identified or cataloged. These objects could be anything from previously untracked satellites, spent rocket stages, debris from satellite collisions, or even natural meteoroids temporarily captured by Earth's gravity.

Loading next visibility...
Identifier
61240, 2024-174C
Orbit
SSO
Country
Flag of CNCN / PRC
Related business
None
Manufacturer
Unknown
Mission
Operational Commercial Radar Imaging
Bus & Motor
Unknown
Mass
Unknown
Launch date (UTC)
2024-09-24 (1 year ago)
Launch vehicle
LIJIAN-1
Launch site
Jiuquan Satellite Launch Center, China (JSC)
Object type
Unknown
Shape & HBR
Box + 2 Pan, 0.8 m
Radar Cross Section
0.514 m², Large (>1 m²)

Expand to show TLE details & history
Last TLE update: 10 hours ago

TLE from 10 hours ago
0 OBJECT C
1 61240U 24174C   25353.28765044  .00003099  00000-0  14371-3 0  9995
2 61240  97.4448 358.5870 0013051 110.3771 249.8868 15.20734606 68358
Epoch: 2025-12-19T06:54Z
TLE epoch observation values (Epoch: 2025-12-19T06:54:12.998Z)
Latitude
0.00004°
Longitude
166.90187°
Altitude
509.813 km
Speed
7.607 km/s
True Right ascension
23h 54m 20s
True Declination
0° 00' 00"
Sunlit
Object was in daylight at epoch
Visualization orbit readout
Latitude
Unknown
Longitude
Unknown
Altitude
Unknown
Speed
Unknown
Apparent Right ascension
Unknown
Apparent Declination
Unknown
Sunlit
N/A
Visualization observer readout
Local Sidereal Time
15:35:41
Azimuth
Unknown
Elevation
Unknown
Doppler factor
Unknown
Orbital elements
Apogee altitude
509.567 km
Perigee altitude
491.613 km
Semi-major axis
6,878.727 km
Eccentricity
0.00131
Inclination
97.4448°
RAAN
358.587°
Arg. of periapsis
110.3771°
True anomaly
249.74645°
Mean anomaly
249.8868°
Eccentric anomaly
249.81662°
Mean motion
3.80436 °/min
Orbital period
94.63 mins
BSTAR
0.00014371
Loading maneuver chart data...
Computing Atmospheric mass density...
Loading historical data...
Loading historical data...
Loading historical data...
Loading historical data...
Loading historical data...
Loading historical data...
Loading historical data...

Documentation

Showing up to 5 results
|